EW3060 Weather Reports


Display with metric or nautical units.
time (UTC)temp
F
wind
direction
speed
MPH
gust
MPH
rain 1hr
in
rain 24hr
in
rain mn
in
humidity
%
barometer
mb
20260906090016 73 224 1.0 3.0 0.00 0.00 0.00 49 1005.3
20260906084511 73 227 1.0 4.0 0.00 0.00 0.00 48 1005.4
20260906083010 73 233 1.0 2.0 0.00 0.00 0.00 49 1005.4
20260906081508 73 216 1.0 2.0 0.00 0.00 0.00 49 1005.6
20260906080008 73 191 1.0 5.0 0.00 0.00 0.00 48 1005.5
20260906074508 73 201 1.0 2.0 0.00 0.00 0.00 49 1005.4
20260906073006 73 239 1.0 3.0 0.00 0.00 0.00 49 1005.6
20260906071505 73 198 0.0 2.0 0.00 0.00 0.00 48 1005.7
20260906070009 73 230 0.0 2.0 0.00 0.00 0.00 47 1005.6
20260906064503 73 210 0.0 2.0 0.00 0.00 0.00 47 1005.6
20260906063003 74 235 0.0 2.0 0.00 0.00 0.00 46 1005.8
20260906061504 74 193 0.0 2.0 0.00 0.00 0.00 45 1006.0
20260906060002 74 214 0.0 2.0 0.00 0.00 0.00 43 1006.1
20260906054501 73 211 0.0 1.0 0.00 0.00 0.00 42 1006.2
20260906053003 74 214 0.0 1.0 0.00 0.00 0.00 41 1006.3
20260906051600 74 222 0.0 1.0 0.00 0.00 0.00 40 1006.6
20260906050106 74 203 0.0 0.0 0.00 0.00 0.00 39 1006.7
20260906044602 74 206 0.0 1.0 0.00 0.00 0.00 37 1006.6
20260906043059 74 208 0.0 1.0 0.00 0.00 0.00 38 1006.6
20260906041558 75 180 0.0 1.0 0.00 0.00 0.00 40 1006.4
20260906040104 75 193 0.0 2.0 0.00 0.00 0.00 40 1006.3
20260906034600 75 210 1.0 2.0 0.00 0.00 0.00 40 1006.0
20260906033112 75 359 1.0 2.0 0.00 0.00 0.00 39 1005.5
20260906031613 76 207 1.0 4.0 0.00 0.00 0.00 38 1005.5
20260906030058 76 187 1.0 6.0 0.00 0.00 0.00 37 1005.0
20260906024605 76 359 1.0 3.0 0.00 0.00 0.00 37 1005.1
20260906023101 77 359 1.0 3.0 0.00 0.00 0.00 36 1004.9
20260906021558 78 189 1.0 3.0 0.00 0.00 0.00 36 1004.9
20260906020054 78 209 1.0 3.0 0.00 0.00 0.00 37 1005.0
20260906014555 79 222 1.0 3.0 0.00 0.00 0.00 36 1005.3
20260906013054 80 195 1.0 2.0 0.00 0.00 0.00 35 1005.4
20260906011551 80 210 1.0 2.0 0.00 0.00 0.00 34 1005.5
20260906010053 80 216 1.0 2.0 0.00 0.00 0.00 34 1005.6
20260906004550 81 205 0.0 2.0 0.00 0.00 0.00 34 1005.6
20260906003049 81 194 1.0 2.0 0.00 0.00 0.00 33 1005.7
20260906001548 82 179 1.0 2.0 0.00 0.00 0.00 31 1005.7
20260906000057 82 177 1.0 3.0 0.00 0.00 0.00 31 1005.7
20260905234551 82 213 1.0 3.0 0.00 0.00 0.00 30 1005.8
20260905233049 82 172 1.0 3.0 0.00 0.00 0.00 30 1005.7
20260905231544 82 159 0.0 5.0 0.00 0.00 0.00 32 1005.8
20260905230044 82 235 1.0 3.0 0.00 0.00 0.00 31 1006.0
20260905224541 82 182 1.0 6.0 0.00 0.00 0.00 31 1005.9
20260905223040 83 234 1.0 3.0 0.00 0.00 0.00 28 1006.1
20260905221538 82 213 1.0 5.0 0.00 0.00 0.00 26 1006.1
20260905220039 83 210 1.0 6.0 0.00 0.00 0.00 25 1006.1
20260905214535 83 206 1.0 5.0 0.00 0.00 0.00 24 1006.1
20260905213033 83 206 1.0 7.0 0.00 0.00 0.00 22 1006.2
20260905211556 82 214 1.0 5.0 0.00 0.00 0.00 23 1006.5
20260905210030 83 149 0.0 3.0 0.00 0.00 0.00 22 1006.4
20260905204528 81 187 1.0 3.0 0.00 0.00 0.00 20 1006.5
20260905203026 81 213 1.0 3.0 0.00 0.00 0.00 20 1006.4
20260905201531 81 186 1.0 3.0 0.00 0.00 0.00 19 1006.7
20260905200022 81 177 1.0 3.0 0.00 0.00 0.00 19 1007.0
20260905194520 81 242 1.0 4.0 0.00 0.00 0.00 20 1006.9
20260905193019 80 220 1.0 5.0 0.00 0.00 0.00 20 1007.1
20260905191515 80 187 1.0 2.0 0.00 0.00 0.00 20 1007.1
20260905190014 79 174 1.0 5.0 0.00 0.00 0.00 19 1007.3
20260905184514 79 174 0.0 3.0 0.00 0.00 0.00 19 1007.5
20260905183011 78 185 1.0 3.0 0.00 0.00 0.00 19 1007.6
20260905181507 78 188 1.0 3.0 0.00 0.00 0.00 19 1007.6
20260905180005 78 173 1.0 5.0 0.00 0.00 0.00 20 1007.5
20260905174504 78 171 1.0 4.0 0.00 0.00 0.00 21 1007.4
20260905173002 78 187 1.0 2.0 0.00 0.00 0.00 20 1007.2
20260905171559 78 212 1.0 6.0 0.00 0.00 0.00 20 1007.1
20260905170105 77 173 1.0 10.0 0.00 0.00 0.00 21 1006.9
20260905164555 77 194 1.0 3.0 0.00 0.00 0.00 22 1006.9
20260905163053 76 203 1.0 3.0 0.00 0.00 0.00 24 1006.8
20260905161551 75 191 1.0 4.0 0.00 0.00 0.00 25 1006.8
20260905160048 75 208 0.0 4.0 0.00 0.00 0.00 26 1006.7
20260905154544 73 177 1.0 2.0 0.00 0.00 0.00 29 1006.5
20260905153041 70 148 0.0 1.0 0.00 0.00 0.00 37 1006.6
20260905151546 70 107 0.0 0.0 0.00 0.00 0.00 36 1006.5
20260905150037 69 106 0.0 0.0 0.00 0.00 0.00 36 1006.5
20260905144534 67 110 0.0 0.0 0.00 0.00 0.00 38 1006.6
20260905143040 65 106 0.0 0.0 0.00 0.00 0.00 40 1006.5
20260905141532 64 206 0.0 0.0 0.00 0.00 0.00 42 1006.4
20260905140031 63 359 0.0 0.0 0.00 0.00 0.00 43 1006.4
20260905134534 63 206 0.0 0.0 0.00 0.00 0.00 43 1006.2
20260905133027 63 206 0.0 0.0 0.00 0.00 0.00 43 1006.0
20260905131527 62 165 0.0 0.0 0.00 0.00 0.00 43 1005.9
20260905130025 62 255 0.0 0.0 0.00 0.00 0.00 44 1005.8
20260905124533 62 255 0.0 0.0 0.00 0.00 0.00 43 1005.7
20260905123021 63 255 0.0 0.0 0.00 0.00 0.00 43 1005.6
20260905121520 63 239 0.0 0.0 0.00 0.00 0.00 42 1005.7
20260905120017 63 242 0.0 1.0 0.00 0.00 0.00 42 1005.7
20260905114517 64 212 0.0 2.0 0.00 0.00 0.00 41 1005.7
20260905113019 64 215 0.0 2.0 0.00 0.00 0.00 42 1005.5
20260905111516 65 197 0.0 3.0 0.00 0.00 0.00 41 1005.6
20260905110013 65 216 0.0 1.0 0.00 0.00 0.00 42 1005.7
20260905104512 64 232 0.0 1.0 0.00 0.00 0.00 44 1005.7
20260905103012 64 229 0.0 1.0 0.00 0.00 0.00 46 1005.6
20260905101521 64 214 0.0 1.0 0.00 0.00 0.00 50 1005.6
20260905100010 64 217 0.0 3.0 0.00 0.00 0.00 54 1005.6
20260905094510 64 204 1.0 2.0 0.00 0.00 0.00 54 1005.5
20260905093006 64 204 0.0 2.0 0.00 0.00 0.00 52 1005.5
20260905091505 65 191 1.0 3.0 0.00 0.00 0.00 50 1005.5